カタログに戻る

COSMOS 2251 DEB

運用中LEO
NORAD 35594·DEBRIS·🇷🇺 Russia

打ち上げ Jun 16, 1993 から Plesetsk Cosmodrome

Loading…

次のパス (今後24時間)

TLE

最新Source: Space-Track

元期: Sep 14, 2026, 10:31 UTC

1 35594U 93036AMM 26257.43854428  .00008243  00000-0  75932-3 0  9993
2 35594  73.8038 265.6099 0030242 316.9679  42.9139 14.94509075922966

AllMySatでCOSMOS 2251 DEBをリアルタイム追跡

Download on the App Store